[[{"header":{"parameterUnit":"m.s-1","parameterCategory":1,"la1":30.2991,"la2":30.254,"lo1":-89.0895,"lo2":-89.0444,"dy":0.0017,"dx":0.0017,"nx":28,"ny":28,"refTime":"2025-11-26T03:00:00:Z","depth":0,"parameterNumber":2,"parameterNumberName":"U-component_of_WINDS"},"data":[0,0,0,0,0,0,0,0,0,0,0,0,0,0,0,0,0,0,0,0,0,0,0,0,0,0,0,0,0,0,0,0,0,0,0,0,0,0,0,0,0,0,0,0,0,0,0,0,0,0,0,0,0,0,0,0,0,0,-0.3952,-0.3951,0,-0.3853,-0.3852,-0.3851,-0.3804,-0.3804,-0.3804,-0.3804,-0.3699,-0.3696,-0.3693,0,0,0,0,0,0,0,0,0,0,0,0,0,-0.4095,-0.4093,-0.3952,-0.3951,-0.395,-0.3854,-0.3852,-0.3851,-0.3804,-0.3804,-0.3804,-0.3804,-0.37,-0.3696,-0.3693,0,0,0,0,0,0,0,0,0,0,0,0,0,-0.4018,-0.4092,-0.3952,-0.3915,-0.3911,-0.3854,-0.3852,-0.3851,-0.3804,-0.3804,-0.3804,-0.3804,-0.3701,-0.3697,-0.3692,-0.3664,0,0,-0.3679,-0.3677,0,0,0,0,0,0,0,0,-0.4023,-0.4013,-0.3922,-0.3917,-0.3912,-0.3841,-0.3864,-0.3788,-0.3804,-0.3844,-0.3804,-0.3804,-0.3746,-0.3738,-0.3719,-0.3659,-0.3655,-0.3679,-0.3676,-0.3675,-0.3673,0,0,0,0,0,0,0,-0.4028,-0.4017,-0.3913,-0.392,-0.3915,-0.3901,-0.3891,-0.3849,-0.3796,-0.3841,-0.3837,-0.3826,-0.3743,-0.3723,-0.3716,-0.3653,-0.3679,-0.3675,-0.3673,-0.3671,-0.3564,-0.3563,0,0,0,0,0,0,-0.404,-0.4022,-0.3916,-0.391,-0.3969,-0.3899,-0.3887,-0.3864,-0.3796,-0.3786,-0.3827,-0.3825,-0.3731,-0.3721,-0.3712,-0.3674,-0.3675,-0.3671,-0.3668,-0.3564,-0.3564,-0.3563,0,0,0,0,0,0,-0.4044,-0.4031,-0.392,-0.3965,-0.395,-0.3896,-0.3871,-0.3862,-0.3842,-0.3785,-0.3775,-0.3816,-0.373,-0.3718,-0.3677,-0.367,-0.3669,-0.3665,-0.3564,-0.3564,-0.3564,-0.3597,0,0,0,0,0,0,-0.4048,-0.4033,-0.4023,-0.3965,-0.3948,-0.3888,-0.3871,-0.386,-0.3835,-0.3832,-0.3773,-0.3763,-0.3729,-0.3683,-0.3672,-0.3664,-0.3661,-0.3565,-0.3564,-0.3564,-0.3597,-0.3598,-0.36,0,0,0,0,0,-0.4053,-0.4036,-0.4023,-0.401,-0.3934,-0.3887,-0.3877,-0.384,-0.3835,-0.3823,-0.3787,-0.3765,-0.3672,-0.3679,-0.3667,-0.3657,-0.3565,-0.3564,-0.3564,-0.3596,-0.3598,-0.36,0,0,0,0,0,0,-0.4092,-0.4027,-0.4012,-0.3976,-0.3938,-0.388,-0.3864,-0.3843,-0.3805,-0.3803,-0.3757,-0.3744,-0.3706,-0.3677,-0.3686,-0.3625,-0.3616,-0.3613,-0.3645,-0.3647,-0.3648,-0.3655,-0.3658,0,0,0,0,0,-0.4097,-0.4066,-0.401,-0.3983,-0.3965,-0.3918,-0.3896,-0.3871,-0.3829,-0.3812,-0.3772,-0.3731,-0.3693,-0.3668,-0.363,-0.3592,-0.3578,-0.3579,-0.3581,-0.3582,-0.358,-0.3556,-0.3556,-0.3561,-0.3561,-0.3561,0,0,-0.4106,-0.4067,-0.4049,-0.399,-0.3958,-0.3925,-0.3905,-0.3871,-0.3846,-0.3806,-0.3765,-0.3734,-0.3685,-0.3645,-0.3626,-0.362,-0.3575,-0.3581,-0.3583,-0.3579,-0.3556,-0.3555,-0.3555,-0.3561,-0.3561,-0.3561,0,0,-0.4105,-0.4073,-0.4047,-0.4014,-0.3966,-0.3935,-0.3928,-0.3873,-0.3852,-0.3809,-0.3779,-0.3747,-0.3682,-0.3648,-0.3622,-0.3608,-0.3586,-0.3597,-0.3604,-0.3582,-0.3582,-0.3581,-0.3575,-0.3573,-0.3595,-0.3595,-0.3595,0,-0.4122,-0.4073,-0.4035,-0.4003,-0.3977,-0.3942,-0.3913,-0.3884,-0.3824,-0.3807,-0.3801,-0.3718,-0.3683,-0.3634,-0.3631,-0.3611,-0.3601,-0.3603,-0.3585,-0.3584,-0.3583,-0.3576,-0.3574,-0.3596,-0.3596,-0.3596,-0.3596,0,-0.4095,-0.4061,-0.4046,-0.3991,-0.3963,-0.3933,-0.3889,-0.3865,-0.3842,-0.3811,-0.3768,-0.3724,-0.3675,-0.3662,-0.3639,-0.3609,-0.3607,-0.3594,-0.3584,-0.3585,-0.3578,-0.3575,-0.3599,-0.3598,-0.3597,-0.3597,0,0,-0.4116,-0.4041,-0.4036,-0.401,-0.3953,-0.3925,-0.3893,-0.3847,-0.3827,-0.3787,-0.3758,-0.3703,-0.3691,-0.3661,-0.3634,-0.3615,-0.3605,-0.3604,-0.3602,-0.3605,-0.3568,-0.3578,-0.3576,-0.359,-0.359,-0.3589,-0.3572,0,-0.4107,-0.4049,-0.4014,-0.3969,-0.3937,-0.3902,-0.3874,-0.3835,-0.3805,-0.3772,-0.3738,-0.37,-0.3686,-0.3668,-0.3648,-0.3611,-0.3597,-0.3611,-0.3561,-0.356,-0.3574,-0.3573,-0.3583,-0.3569,-0.3569,-0.3569,-0.3569,0,-0.4088,-0.405,-0.4003,-0.3949,-0.3934,-0.391,-0.3864,-0.3833,-0.3788,-0.3767,-0.3735,-0.3707,-0.367,-0.3664,-0.3611,-0.3622,-0.3599,-0.3578,-0.3576,-0.3569,-0.3564,-0.3565,-0.3564,-0.3561,-0.3564,-0.3564,-0.3565,0,-0.4107,-0.4044,-0.4007,-0.3986,-0.3923,-0.3906,-0.3879,-0.3834,-0.3808,-0.3768,-0.375,-0.3706,-0.3681,-0.3647,-0.3607,-0.3607,-0.3558,-0.3549,-0.3538,-0.3539,-0.3529,-0.353,-0.3523,-0.3516,-0.3516,-0.3516,-0.3516,0,-0.41,-0.4072,-0.4015,-0.3993,-0.396,-0.3919,-0.3887,-0.3857,-0.3817,-0.3786,-0.3753,-0.3725,-0.3675,-0.3641,-0.3609,-0.357,-0.3559,-0.354,-0.3532,-0.3542,-0.3545,-0.3526,-0.3526,-0.3515,-0.3515,-0.3516,-0.3516,0,-0.4115,-0.4076,-0.4034,-0.3978,-0.3963,-0.3941,-0.3892,-0.3868,-0.3836,-0.3798,-0.3786,-0.3736,-0.3693,-0.3651,-0.3593,-0.3572,-0.3532,-0.3522,-0.3548,-0.3543,-0.3535,-0.3536,-0.3515,-0.351,-0.3508,-0.3508,-0.3508,0,-0.4113,-0.4091,-0.4032,-0.401,-0.3984,-0.3949,-0.3922,-0.3881,-0.3854,-0.3801,-0.3783,-0.3738,-0.37,-0.3633,-0.359,-0.3546,-0.3533,-0.3529,-0.3526,-0.3537,-0.3532,-0.3533,-0.353,-0.353,-0.353,-0.3531,-0.3531,0,-0.4113,-0.4094,-0.4058,-0.4015,-0.3985,-0.3949,-0.3911,-0.3895,-0.3846,-0.3817,-0.3774,-0.3745,-0.3686,-0.3641,-0.3592,-0.3561,-0.3537,-0.3532,-0.3527,-0.3537,-0.3553,-0.3544,-0.3551,-0.3533,-0.3533,-0.3532,-0.3532,-0.3532,-0.4118,-0.4096,-0.4052,-0.4012,-0.398,-0.3946,-0.392,-0.3885,-0.3849,-0.3799,-0.3776,-0.3732,-0.3686,-0.3617,-0.3587,-0.3551,-0.3545,-0.3538,-0.3536,-0.3535,-0.3537,-0.356,-0.3542,-0.3542,-0.3542,-0.3542,-0.3542,0,-0.4115,-0.4085,-0.4049,-0.3998,-0.3966,-0.3948,-0.3905,-0.388,-0.3842,-0.3802,-0.3765,-0.3715,-0.3671,-0.3625,-0.3579,-0.3559,-0.3546,-0.3548,-0.3548,-0.3541,-0.3546,-0.3554,-0.3558,-0.3558,-0.3558,-0.3558,-0.3558,-0.3558,-0.411,-0.4072,-0.4048,-0.3993,-0.3962,-0.392,-0.3897,-0.3864,-0.3832,-0.3778,-0.3742,-0.3713,-0.3669,-0.3619,-0.3578,-0.3565,-0.3549,-0.3554,-0.3538,-0.3542,-0.3541,-0.354,-0.3548,-0.3551,-0.3551,-0.3536,-0.3536,-0.3536]},{"header":{"parameterUnit":"m.s-1","parameterCategory":1,"la1":30.2991,"la2":30.254,"lo1":-89.0895,"lo2":-89.0444,"dy":0.0017,"dx":0.0017,"nx":28,"ny":28,"refTime":"2025-11-26T03:00:00:Z","depth":0,"parameterNumber":3,"parameterNumberName":"V-component_of_WINDS"},"data":[0,0,0,0,0,0,0,0,0,0,0,0,0,0,0,0,0,0,0,0,0,0,0,0,0,0,0,0,0,0,0,0,0,0,0,0,0,0,0,0,0,0,0,0,0,0,0,0,0,0,0,0,0,0,0,0,0,0,4.8638,4.8639,0,4.875,4.8752,4.8753,4.8767,4.8766,4.8765,4.8764,4.8874,4.8878,4.8882,0,0,0,0,0,0,0,0,0,0,0,0,0,4.8433,4.8437,4.8638,4.8639,4.8641,4.875,4.8752,4.8753,4.8767,4.8766,4.8765,4.8763,4.8873,4.8878,4.8882,0,0,0,0,0,0,0,0,0,0,0,0,0,4.8531,4.8438,4.8638,4.8661,4.8664,4.875,4.8752,4.8753,4.8767,4.8766,4.8764,4.8763,4.8872,4.8877,4.8883,4.8952,0,0,4.8901,4.8904,0,0,0,0,0,0,0,0,4.8525,4.8539,4.8656,4.866,4.8663,4.8743,4.872,4.882,4.8768,4.8728,4.8764,4.8762,4.8832,4.8841,4.8865,4.8957,4.8962,4.8902,4.8905,4.8908,4.8909,0,0,0,0,0,0,0,4.8519,4.8534,4.8682,4.8658,4.8662,4.8665,4.8677,4.8739,4.8787,4.8731,4.8733,4.8746,4.8833,4.8859,4.8868,4.8963,4.8901,4.8907,4.891,4.8913,4.912,4.9122,0,0,0,0,0,0,4.8508,4.8528,4.8679,4.8686,4.8589,4.867,4.8684,4.8719,4.8787,4.8796,4.8747,4.8746,4.885,4.8861,4.8872,4.896,4.8908,4.8913,4.8917,4.9118,4.912,4.9122,0,0,0,0,0,0,4.8504,4.8521,4.8674,4.8607,4.8627,4.8675,4.8715,4.8722,4.8748,4.8799,4.8807,4.8766,4.8849,4.8863,4.8933,4.8963,4.8916,4.8921,4.9116,4.9119,4.9121,4.9134,0,0,0,0,0,0,4.8498,4.852,4.8547,4.8608,4.8631,4.8734,4.8717,4.8725,4.8759,4.8759,4.8818,4.8826,4.8849,4.8924,4.8939,4.8971,4.8926,4.9113,4.9117,4.912,4.9131,4.9137,4.9142,0,0,0,0,0,4.849,4.8544,4.8548,4.8566,4.8666,4.8736,4.8749,4.8775,4.8761,4.8789,4.8822,4.8824,4.8957,4.8931,4.8948,4.8982,4.9111,4.9116,4.912,4.9128,4.9135,4.9142,0,0,0,0,0,0,4.8483,4.8552,4.8558,4.8633,4.8679,4.8738,4.8774,4.8781,4.8831,4.8828,4.8857,4.8871,4.8939,4.8967,4.8936,4.9053,4.9033,4.9041,4.9033,4.9041,4.9046,4.9039,4.8931,0,0,0,0,0,4.8491,4.8543,4.86,4.8661,4.8684,4.8725,4.8756,4.8773,4.8821,4.884,4.8877,4.8923,4.8975,4.9009,4.9059,4.9134,4.9148,4.9166,4.9171,4.9175,4.9183,4.9227,4.9237,4.9137,4.9137,4.9137,0,0,4.8506,4.855,4.8581,4.8661,4.8698,4.8752,4.8741,4.8797,4.8837,4.8848,4.8917,4.8946,4.8999,4.9072,4.9106,4.9097,4.9213,4.9181,4.9184,4.9189,4.9233,4.9242,4.9251,4.914,4.9139,4.9139,0,0,4.8563,4.8601,4.8658,4.8696,4.8754,4.8781,4.8794,4.8853,4.8874,4.8944,4.8954,4.9001,4.9089,4.9128,4.9158,4.9231,4.9237,4.9247,4.9276,4.9319,4.9327,4.9334,4.9363,4.9373,4.9253,4.9253,4.9253,0,4.8575,4.8657,4.8685,4.8743,4.8778,4.8792,4.885,4.8885,4.8955,4.8979,4.8968,4.9082,4.9118,4.9202,4.922,4.9243,4.9261,4.9241,4.9324,4.9331,4.9338,4.9366,4.9377,4.9254,4.9254,4.9254,4.9254,0,4.867,4.8727,4.8766,4.8837,4.8876,4.8933,4.8969,4.9005,4.9019,4.9047,4.9119,4.9163,4.9224,4.9244,4.9256,4.9331,4.9324,4.9318,4.9299,4.9349,4.9376,4.9386,4.9256,4.9255,4.9255,4.9255,0,0,4.8726,4.8814,4.8828,4.8861,4.8926,4.8971,4.9028,4.909,4.9122,4.9169,4.922,4.9295,4.9291,4.9326,4.9343,4.938,4.9439,4.937,4.9372,4.9384,4.9527,4.9534,4.9545,4.9442,4.9444,4.9446,4.9524,0,4.8793,4.8899,4.8927,4.9017,4.9071,4.9085,4.9136,4.9181,4.9209,4.9258,4.9288,4.9343,4.9331,4.9353,4.9391,4.9424,4.9469,4.9418,4.949,4.9493,4.948,4.9559,4.9566,4.9637,4.9534,4.9536,4.9537,0,4.8885,4.8939,4.9035,4.9096,4.912,4.9165,4.9226,4.9272,4.9324,4.9341,4.9382,4.9395,4.9456,4.9432,4.9517,4.9482,4.9513,4.9534,4.9537,4.9547,4.952,4.9574,4.966,4.9672,4.9553,4.9552,4.9551,0,4.8921,4.9016,4.9087,4.9114,4.9186,4.9219,4.925,4.93,4.9336,4.9388,4.9412,4.9469,4.9501,4.9545,4.9574,4.9553,4.9658,4.9635,4.9676,4.9675,4.9699,4.9698,4.9795,4.9713,4.9713,4.9713,4.9713,0,4.8994,4.9053,4.9104,4.9148,4.9215,4.9246,4.9311,4.9342,4.9387,4.9437,4.9451,4.9497,4.9531,4.9582,4.9604,4.9673,4.9686,4.9703,4.9709,4.9704,4.9703,4.9727,4.9724,4.9716,4.9715,4.9715,4.9714,0,4.9046,4.9082,4.9161,4.9224,4.9241,4.9288,4.9341,4.9384,4.9413,4.9476,4.9492,4.9537,4.9598,4.9631,4.9706,4.9721,4.9799,4.9801,4.9783,4.9786,4.9826,4.9823,4.9944,4.9963,4.9866,4.9867,4.9868,0,4.9092,4.9139,4.9207,4.9243,4.9276,4.9332,4.9371,4.9402,4.9441,4.9504,4.954,4.9602,4.9654,4.9751,4.979,4.9848,4.9853,4.9891,4.9861,4.9856,4.9857,4.9856,4.9862,4.9897,4.9898,4.9899,4.9899,0,4.9171,4.9188,4.9243,4.9306,4.9351,4.9401,4.945,4.9478,4.9518,4.9561,4.9625,4.9665,4.9744,4.9806,4.9868,4.9899,4.9907,4.9908,4.9921,4.9918,4.9908,4.9917,4.9801,4.9906,4.9905,4.9905,4.9904,4.9904,4.9224,4.9268,4.9324,4.9386,4.9427,4.9473,4.9518,4.9553,4.9607,4.9676,4.969,4.9758,4.981,4.9894,4.9927,4.9981,4.9973,4.9991,4.9996,5.0001,5.0005,4.9897,4.9991,4.9991,4.9991,4.9991,4.9991,0,4.9307,4.9345,4.9401,4.9472,4.9521,4.9524,4.9579,4.962,4.968,4.9729,4.978,4.9855,4.9916,4.996,5.0022,5.0056,5.0062,5.0072,5.0071,5.0079,5.0006,4.999,5.0067,5.0067,5.0067,5.0067,5.0067,5.0067,4.9357,4.9432,4.9455,4.955,4.9586,4.9655,4.9687,4.973,4.9769,4.9853,4.9904,4.9933,4.998,5.0046,5.0102,5.0113,5.0137,5.0148,5.016,5.0091,5.0083,5.0076,5.0061,5.0152,5.0152,5.0228,5.0229,5.023]}]]